Location: Julian California
(33.0790°N, 116.6010°W)
Time: 23:16:50
(UTC-08:00)

Terra - Pass Details

Date: 14 June 2018
Orbit: 701 x 703 km, 98.2° (Epoch: 16 November)

Event Time Altitude Azimuth Distance (km) Brightness Sun altitude
Exits shadow 21:49:42 18° 76° (ENE) 1,711 3.5 -19.6°
Maximum altitude 21:50:14 18° 68° (ENE) 1,695 3.6 -19.6°
Drops below altitude 10° 21:53:23 10° 26° (NNE) 2,170 4.6 -20.1°
Sets 21:56:16 0° 8° (N) 3,092 5.7 -20.5°
